| time (UTC) | temp F | wind direction | speed MPH | gust MPH | rain 1hr in | rain 24hr in | rain mn in | humidity % | barometer mb |
| 20260506001405 | 36 | 14 | 0.0 | 0.0 | 0.00 | 0.00 | 0.00 | 85 | 1016.9 |
| 20260506000905 | 37 | 14 | 0.0 | 0.0 | 0.00 | 0.00 | 0.00 | 85 | 1016.9 |
| 20260506000408 | 37 | 14 | 0.0 | 0.0 | 0.00 | 0.00 | 0.00 | 84 | 1017.1 |
| 20260505235906 | 37 | 14 | 0.0 | 0.0 | 0.00 | 0.00 | 0.00 | 84 | 1017.1 |
| 20260505235405 | 37 | 14 | 0.0 | 0.0 | 0.00 | 0.00 | 0.00 | 84 | 1017.0 |
| 20260505234905 | 37 | 14 | 0.0 | 0.0 | 0.00 | 0.00 | 0.00 | 84 | 1017.0 |
| 20260505234405 | 38 | 14 | 0.0 | 0.0 | 0.00 | 0.00 | 0.00 | 84 | 1017.0 |
| 20260505233905 | 38 | 14 | 0.0 | 0.0 | 0.00 | 0.00 | 0.00 | 84 | 1017.0 |
| 20260505233405 | 38 | 14 | 0.0 | 0.0 | 0.00 | 0.00 | 0.00 | 84 | 1017.0 |
| 20260505232906 | 38 | 14 | 0.0 | 0.0 | 0.00 | 0.00 | 0.00 | 84 | 1017.0 |
| 20260505232405 | 38 | 14 | 0.0 | 0.0 | 0.00 | 0.00 | 0.00 | 84 | 1017.1 |
| 20260505231905 | 38 | 14 | 0.0 | 0.0 | 0.00 | 0.00 | 0.00 | 84 | 1017.1 |
| 20260505231406 | 38 | 14 | 0.0 | 0.0 | 0.00 | 0.00 | 0.00 | 84 | 1016.9 |
| 20260505230905 | 38 | 14 | 0.0 | 0.0 | 0.00 | 0.00 | 0.00 | 84 | 1017.0 |
| 20260505230405 | 38 | 14 | 0.0 | 0.0 | 0.00 | 0.00 | 0.00 | 84 | 1016.9 |
| 20260505225405 | 38 | 14 | 0.0 | 0.0 | 0.00 | 0.00 | 0.00 | 83 | 1017.1 |
| 20260505224903 | 38 | 14 | 0.0 | 0.0 | 0.00 | 0.00 | 0.00 | 82 | 1017.1 |
| 20260505224405 | 38 | 14 | 0.0 | 0.0 | 0.00 | 0.00 | 0.00 | 82 | 1017.1 |
| 20260505223904 | 38 | 14 | 0.0 | 0.0 | 0.00 | 0.00 | 0.00 | 81 | 1017.2 |
| 20260505223405 | 38 | 14 | 0.0 | 0.0 | 0.00 | 0.00 | 0.00 | 81 | 1017.1 |
| 20260505222904 | 39 | 14 | 0.0 | 0.0 | 0.00 | 0.00 | 0.00 | 80 | 1017.1 |
| 20260505222403 | 39 | 14 | 0.0 | 0.0 | 0.00 | 0.00 | 0.00 | 79 | 1017.1 |
| 20260505221903 | 39 | 14 | 0.0 | 0.0 | 0.00 | 0.00 | 0.00 | 79 | 1017.1 |
| 20260505215904 | 40 | 14 | 0.0 | 0.0 | 0.00 | 0.00 | 0.00 | 76 | 1017.0 |
| 20260505214904 | 41 | 14 | 0.0 | 0.0 | 0.00 | 0.00 | 0.00 | 74 | 1017.0 |
| 20260505214403 | 41 | 14 | 0.0 | 0.0 | 0.00 | 0.00 | 0.00 | 73 | 1017.0 |
| 20260505213904 | 42 | 14 | 0.0 | 0.0 | 0.00 | 0.00 | 0.00 | 73 | 1017.0 |
| 20260505212905 | 43 | 14 | 0.0 | 0.0 | 0.00 | 0.00 | 0.00 | 71 | 1016.9 |
| 20260505212403 | 43 | 14 | 0.0 | 0.0 | 0.00 | 0.00 | 0.00 | 70 | 1016.9 |
| 20260505211903 | 44 | 14 | 0.0 | 0.0 | 0.00 | 0.00 | 0.00 | 70 | 1016.9 |
| 20260505211404 | 44 | 14 | 0.0 | 0.0 | 0.00 | 0.00 | 0.00 | 69 | 1016.9 |
| 20260505210903 | 45 | 14 | 0.0 | 0.0 | 0.00 | 0.00 | 0.00 | 68 | 1016.9 |
| 20260505205403 | 46 | 14 | 0.0 | 0.0 | 0.00 | 0.00 | 0.00 | 68 | 1016.9 |
| 20260505204403 | 46 | 14 | 0.0 | 0.0 | 0.00 | 0.00 | 0.00 | 66 | 1016.9 |
| 20260505203903 | 47 | 14 | 0.0 | 0.0 | 0.00 | 0.00 | 0.00 | 64 | 1016.9 |
| 20260505202904 | 47 | 14 | 0.0 | 0.0 | 0.00 | 0.00 | 0.00 | 63 | 1016.9 |
| 20260505201903 | 47 | 14 | 0.0 | 0.0 | 0.00 | 0.00 | 0.00 | 60 | 1016.8 |
| 20260505201403 | 47 | 14 | 0.0 | 0.0 | 0.00 | 0.00 | 0.00 | 59 | 1016.8 |
| 20260505200903 | 48 | 14 | 0.0 | 3.0 | 0.00 | 0.00 | 0.00 | 58 | 1016.8 |
| 20260505200403 | 48 | 14 | 0.0 | 3.0 | 0.00 | 0.00 | 0.00 | 57 | 1016.8 |
| 20260505195904 | 48 | 14 | 2.0 | 3.0 | 0.00 | 0.00 | 0.00 | 56 | 1016.8 |
| 20260505195403 | 48 | 14 | 1.0 | 3.0 | 0.00 | 0.00 | 0.00 | 56 | 1016.7 |
| 20260505194904 | 48 | 14 | 3.0 | 6.0 | 0.00 | 0.00 | 0.00 | 56 | 1016.7 |
| 20260505194404 | 48 | 22 | 2.0 | 3.0 | 0.00 | 0.00 | 0.00 | 56 | 1016.6 |
| 20260505192903 | 49 | 352 | 3.0 | 9.0 | 0.00 | 0.00 | 0.00 | 53 | 1016.5 |
| 20260505191904 | 49 | 6 | 3.0 | 10.0 | 0.00 | 0.00 | 0.00 | 53 | 1016.4 |
| 20260505191403 | 50 | 32 | 3.0 | 10.0 | 0.00 | 0.00 | 0.00 | 53 | 1016.5 |
| 20260505190904 | 50 | 11 | 2.0 | 8.0 | 0.00 | 0.00 | 0.00 | 53 | 1016.4 |
| 20260505190404 | 50 | 0 | 3.0 | 12.0 | 0.00 | 0.00 | 0.00 | 53 | 1016.3 |
| 20260505185904 | 51 | 20 | 3.0 | 7.0 | 0.00 | 0.00 | 0.00 | 53 | 1016.2 |
| 20260505185403 | 51 | 0 | 3.0 | 8.0 | 0.00 | 0.00 | 0.00 | 52 | 1016.3 |
| 20260505184904 | 51 | 18 | 6.0 | 8.0 | 0.00 | 0.00 | 0.00 | 50 | 1016.2 |
| 20260505184403 | 52 | 8 | 3.0 | 8.0 | 0.00 | 0.00 | 0.00 | 51 | 1016.2 |
| 20260505183904 | 52 | 12 | 4.0 | 12.0 | 0.00 | 0.00 | 0.00 | 50 | 1016.2 |
| 20260505183403 | 52 | 9 | 5.0 | 14.0 | 0.00 | 0.00 | 0.00 | 51 | 1016.1 |
| 20260505182903 | 52 | 358 | 3.0 | 12.0 | 0.00 | 0.00 | 0.00 | 51 | 1016.1 |
| 20260505181903 | 52 | 19 | 5.0 | 12.0 | 0.00 | 0.00 | 0.00 | 50 | 1016.0 |
| 20260505181404 | 52 | 42 | 3.0 | 9.0 | 0.00 | 0.00 | 0.00 | 51 | 1016.0 |
| 20260505180404 | 53 | 16 | 2.0 | 9.0 | 0.00 | 0.00 | 0.00 | 51 | 1015.9 |
| 20260505175904 | 52 | 19 | 3.0 | 9.0 | 0.00 | 0.00 | 0.00 | 53 | 1016.0 |
| 20260505174904 | 51 | 22 | 5.0 | 12.0 | 0.00 | 0.00 | 0.00 | 51 | 1016.0 |
| 20260505174403 | 52 | 18 | 3.0 | 9.0 | 0.00 | 0.00 | 0.00 | 52 | 1016.0 |
| 20260505173904 | 52 | 8 | 6.0 | 12.0 | 0.00 | 0.00 | 0.00 | 50 | 1016.0 |
| 20260505173404 | 53 | 40 | 3.0 | 8.0 | 0.00 | 0.00 | 0.00 | 48 | 1016.0 |
| 20260505172903 | 55 | 30 | 2.0 | 8.0 | 0.00 | 0.00 | 0.00 | 49 | 1015.9 |
| 20260505172404 | 55 | 350 | 5.0 | 12.0 | 0.00 | 0.00 | 0.00 | 47 | 1015.9 |
| 20260505171903 | 55 | 41 | 3.0 | 9.0 | 0.00 | 0.00 | 0.00 | 48 | 1016.0 |
| 20260505170904 | 56 | 11 | 6.0 | 10.0 | 0.00 | 0.00 | 0.00 | 47 | 1015.9 |
| 20260505165903 | 56 | 15 | 6.0 | 10.0 | 0.00 | 0.00 | 0.00 | 48 | 1015.8 |
| 20260505165404 | 56 | 5 | 5.0 | 12.0 | 0.00 | 0.00 | 0.00 | 48 | 1015.8 |
| 20260505164904 | 55 | 355 | 5.0 | 7.0 | 0.00 | 0.00 | 0.00 | 52 | 1015.8 |
| 20260505164405 | 54 | 16 | 2.0 | 7.0 | 0.00 | 0.00 | 0.00 | 50 | 1015.8 |
| 20260505163403 | 55 | 0 | 4.0 | 9.0 | 0.00 | 0.00 | 0.00 | 51 | 1015.8 |
| 20260505162903 | 54 | 7 | 5.0 | 12.0 | 0.00 | 0.00 | 0.00 | 49 | 1015.9 |
| 20260505162404 | 55 | 24 | 4.0 | 10.0 | 0.00 | 0.00 | 0.00 | 49 | 1015.9 |
| 20260505161904 | 55 | 4 | 5.0 | 10.0 | 0.00 | 0.00 | 0.00 | 50 | 1015.9 |
| 20260505161403 | 55 | 8 | 3.0 | 12.0 | 0.00 | 0.00 | 0.00 | 49 | 1015.9 |
| 20260505160404 | 54 | 23 | 4.0 | 9.0 | 0.00 | 0.00 | 0.00 | 49 | 1016.0 |
| 20260505152405 | 56 | 34 | 4.0 | 9.0 | 0.00 | 0.00 | 0.00 | 50 | 1016.1 |
| 20260505151904 | 56 | 26 | 4.0 | 12.0 | 0.00 | 0.00 | 0.00 | 49 | 1016.1 |
| 20260505151403 | 56 | 16 | 5.0 | 18.0 | 0.00 | 0.00 | 0.00 | 49 | 1016.1 |
| 20260505150904 | 57 | 20 | 5.0 | 10.0 | 0.00 | 0.00 | 0.00 | 50 | 1016.0 |
| 20260505150405 | 56 | 18 | 3.0 | 9.0 | 0.00 | 0.00 | 0.00 | 49 | 1016.0 |
| 20260505124904 | 52 | 14 | 7.0 | 13.0 | 0.00 | 0.00 | 0.00 | 61 | 1016.4 |
| 20260505124403 | 51 | 359 | 6.0 | 15.0 | 0.00 | 0.00 | 0.00 | 63 | 1016.3 |
| 20260505123905 | 50 | 37 | 3.0 | 8.0 | 0.00 | 0.00 | 0.00 | 65 | 1016.4 |
| 20260505123405 | 51 | 14 | 3.0 | 12.0 | 0.00 | 0.00 | 0.00 | 63 | 1016.4 |
| 20260505122906 | 53 | 1 | 6.0 | 12.0 | 0.00 | 0.00 | 0.00 | 60 | 1016.4 |
| 20260505122404 | 53 | 28 | 5.0 | 14.0 | 0.00 | 0.00 | 0.00 | 63 | 1016.4 |
| 20260505121905 | 52 | 5 | 7.0 | 15.0 | 0.00 | 0.00 | 0.00 | 64 | 1016.4 |
| 20260505121404 | 50 | 7 | 6.0 | 13.0 | 0.00 | 0.00 | 0.00 | 65 | 1016.4 |
| 20260505120904 | 49 | 10 | 7.0 | 13.0 | 0.00 | 0.00 | 0.00 | 66 | 1016.4 |
| 20260505120406 | 48 | 26 | 6.0 | 14.0 | 0.00 | 0.00 | 0.00 | 67 | 1016.5 |
| 20260505115904 | 48 | 5 | 6.0 | 16.0 | 0.00 | 0.00 | 0.00 | 67 | 1016.5 |
| 20260505115404 | 48 | 17 | 5.0 | 13.0 | 0.00 | 0.00 | 0.00 | 69 | 1016.5 |
| 20260505114903 | 48 | 16 | 5.0 | 12.0 | 0.00 | 0.00 | 0.00 | 69 | 1016.5 |
| 20260505114405 | 48 | 26 | 5.0 | 12.0 | 0.00 | 0.00 | 0.00 | 68 | 1016.6 |
| 20260505113403 | 48 | 6 | 7.0 | 15.0 | 0.00 | 0.00 | 0.00 | 69 | 1016.6 |
| 20260505112905 | 48 | 31 | 7.0 | 14.0 | 0.00 | 0.00 | 0.00 | 70 | 1016.6 |
| 20260505112404 | 48 | 20 | 8.0 | 16.0 | 0.00 | 0.00 | 0.00 | 70 | 1016.5 |
| 20260505111403 | 49 | 24 | 8.0 | 18.0 | 0.00 | 0.00 | 0.00 | 71 | 1016.5 |
| 20260505110905 | 47 | 15 | 7.0 | 14.0 | 0.00 | 0.00 | 0.00 | 71 | 1016.5 |
| 20260505110404 | 48 | 8 | 6.0 | 14.0 | 0.00 | 0.00 | 0.00 | 71 | 1016.6 |
| 20260505101905 | 47 | 12 | 5.0 | 14.0 | 0.00 | 0.00 | 0.00 | 78 | 1016.7 |
| 20260505101404 | 47 | 4 | 8.0 | 16.0 | 0.00 | 0.00 | 0.00 | 78 | 1016.6 |
| 20260505100904 | 47 | 11 | 7.0 | 16.0 | 0.00 | 0.00 | 0.00 | 79 | 1016.6 |
| 20260505100405 | 46 | 15 | 7.0 | 14.0 | 0.00 | 0.00 | 0.00 | 80 | 1016.6 |
| 20260505095904 | 46 | 358 | 6.0 | 14.0 | 0.00 | 0.00 | 0.00 | 81 | 1016.6 |
| 20260505095404 | 46 | 23 | 6.0 | 14.0 | 0.00 | 0.00 | 0.00 | 81 | 1016.7 |
| 20260505094905 | 46 | 9 | 4.0 | 12.0 | 0.00 | 0.00 | 0.00 | 84 | 1016.6 |
| 20260505093904 | 47 | 33 | 6.0 | 10.0 | 0.00 | 0.00 | 0.00 | 85 | 1016.6 |
| 20260505093405 | 47 | 13 | 6.0 | 13.0 | 0.00 | 0.00 | 0.00 | 86 | 1016.5 |
| 20260505092904 | 46 | 12 | 6.0 | 12.0 | 0.00 | 0.00 | 0.00 | 86 | 1016.6 |
| 20260505092405 | 46 | 19 | 5.0 | 12.0 | 0.00 | 0.00 | 0.00 | 86 | 1016.6 |
| 20260505091405 | 46 | 20 | 4.0 | 12.0 | 0.00 | 0.00 | 0.00 | 85 | 1016.5 |
| 20260505090905 | 47 | 9 | 5.0 | 12.0 | 0.00 | 0.00 | 0.00 | 82 | 1016.4 |
| 20260505085903 | 49 | 9 | 3.0 | 12.0 | 0.00 | 0.00 | 0.00 | 71 | 1016.1 |
| 20260505084904 | 49 | 223 | 0.0 | 3.0 | 0.00 | 0.00 | 0.00 | 73 | 1016.0 |
| 20260505084406 | 48 | 223 | 0.0 | 1.0 | 0.00 | 0.00 | 0.00 | 73 | 1016.0 |
| 20260505083404 | 48 | 223 | 0.0 | 0.0 | 0.00 | 0.00 | 0.00 | 75 | 1016.0 |
| 20260505081904 | 48 | 223 | 0.0 | 0.0 | 0.00 | 0.00 | 0.00 | 75 | 1015.9 |
| 20260505081404 | 48 | 223 | 0.0 | 0.0 | 0.00 | 0.00 | 0.00 | 75 | 1015.9 |
| 20260505080405 | 47 | 223 | 0.0 | 0.0 | 0.00 | 0.00 | 0.00 | 76 | 1015.8 |
| 20260505075904 | 46 | 223 | 0.0 | 1.0 | 0.00 | 0.00 | 0.00 | 78 | 1015.8 |
| 20260505075405 | 46 | 223 | 0.0 | 0.0 | 0.00 | 0.00 | 0.00 | 78 | 1015.8 |
| 20260505074905 | 46 | 223 | 0.0 | 3.0 | 0.00 | 0.00 | 0.00 | 80 | 1015.7 |
| 20260505074405 | 46 | 223 | 1.0 | 3.0 | 0.00 | 0.00 | 0.00 | 81 | 1015.7 |
| 20260505073904 | 46 | 223 | 1.0 | 3.0 | 0.00 | 0.00 | 0.00 | 84 | 1015.8 |
| 20260505073405 | 45 | 223 | 1.0 | 3.0 | 0.00 | 0.00 | 0.00 | 90 | 1015.8 |
| 20260505072906 | 44 | 223 | 0.0 | 0.0 | 0.00 | 0.00 | 0.00 | 92 | 1015.8 |
| 20260505072404 | 43 | 223 | 0.0 | 0.0 | 0.00 | 0.00 | 0.00 | 95 | 1015.8 |
| 20260505071905 | 42 | 223 | 0.0 | 0.0 | 0.00 | 0.00 | 0.00 | 96 | 1015.7 |
| 20260505071405 | 41 | 223 | 0.0 | 2.0 | 0.00 | 0.00 | 0.00 | 95 | 1015.7 |
| 20260505070904 | 41 | 223 | 0.0 | 0.0 | 0.00 | 0.00 | 0.00 | 95 | 1015.7 |
| 20260505070404 | 40 | 223 | 0.0 | 0.0 | 0.00 | 0.00 | 0.00 | 95 | 1015.6 |
| 20260505065905 | 40 | 223 | 0.0 | 0.0 | 0.00 | 0.00 | 0.00 | 95 | 1015.6 |
| 20260505064905 | 40 | 223 | 0.0 | 0.0 | 0.00 | 0.00 | 0.00 | 95 | 1015.6 |
| 20260505064404 | 40 | 223 | 0.0 | 0.0 | 0.00 | 0.00 | 0.00 | 95 | 1015.5 |
| 20260505062904 | 40 | 223 | 0.0 | 0.0 | 0.00 | 0.00 | 0.00 | 96 | 1015.6 |
| 20260505062404 | 39 | 223 | 0.0 | 0.0 | 0.00 | 0.00 | 0.00 | 96 | 1015.6 |
| 20260505061405 | 39 | 223 | 0.0 | 0.0 | 0.00 | 0.00 | 0.00 | 96 | 1015.6 |
| 20260505060904 | 39 | 223 | 0.0 | 0.0 | 0.00 | 0.00 | 0.00 | 96 | 1015.6 |
| 20260505060405 | 38 | 223 | 0.0 | 0.0 | 0.00 | 0.00 | 0.00 | 96 | 1015.5 |
| 20260505055906 | 38 | 223 | 0.0 | 0.0 | 0.00 | 0.00 | 0.00 | 96 | 1015.5 |
| 20260505055404 | 38 | 223 | 0.0 | 0.0 | 0.00 | 0.00 | 0.00 | 95 | 1015.4 |
| 20260505053905 | 38 | 223 | 0.0 | 0.0 | 0.00 | 0.00 | 0.00 | 95 | 1015.4 |
| 20260505053404 | 38 | 223 | 0.0 | 0.0 | 0.00 | 0.00 | 0.00 | 95 | 1015.4 |
| 20260505052903 | 38 | 223 | 0.0 | 0.0 | 0.00 | 0.00 | 0.00 | 95 | 1015.5 |
| 20260505052404 | 37 | 223 | 0.0 | 0.0 | 0.00 | 0.00 | 0.00 | 95 | 1015.3 |
| 20260505051904 | 38 | 223 | 0.0 | 0.0 | 0.00 | 0.00 | 0.00 | 95 | 1015.2 |
| 20260505051405 | 38 | 223 | 0.0 | 0.0 | 0.00 | 0.00 | 0.00 | 95 | 1015.2 |
| 20260505050903 | 38 | 223 | 0.0 | 0.0 | 0.00 | 0.00 | 0.00 | 95 | 1015.2 |
| 20260505050405 | 38 | 223 | 0.0 | 0.0 | 0.00 | 0.00 | 0.00 | 95 | 1015.2 |
| 20260505041405 | 40 | 223 | 0.0 | 0.0 | 0.00 | 0.00 | 0.00 | 95 | 1014.9 |
| 20260505040905 | 40 | 223 | 0.0 | 0.0 | 0.00 | 0.00 | 0.00 | 94 | 1014.9 |
| 20260505040403 | 41 | 223 | 0.0 | 0.0 | 0.00 | 0.00 | 0.00 | 94 | 1014.8 |
| 20260505035904 | 41 | 223 | 0.0 | 0.0 | 0.00 | 0.00 | 0.00 | 94 | 1014.8 |
| 20260505035404 | 42 | 223 | 0.0 | 0.0 | 0.00 | 0.00 | 0.00 | 95 | 1014.9 |
| 20260505034903 | 42 | 223 | 0.0 | 0.0 | 0.00 | 0.00 | 0.00 | 94 | 1014.8 |
| 20260505033904 | 43 | 223 | 0.0 | 0.0 | 0.00 | 0.00 | 0.00 | 95 | 1014.8 |
| 20260505032403 | 43 | 223 | 0.0 | 0.0 | 0.00 | 0.00 | 0.00 | 95 | 1014.8 |
| 20260505031904 | 43 | 223 | 0.0 | 0.0 | 0.00 | 0.00 | 0.00 | 95 | 1014.8 |
| 20260505030905 | 43 | 223 | 0.0 | 0.0 | 0.00 | 0.00 | 0.00 | 95 | 1014.7 |
| 20260505030404 | 43 | 223 | 0.0 | 0.0 | 0.00 | 0.00 | 0.00 | 95 | 1014.6 |
| 20260505024904 | 44 | 223 | 0.0 | 0.0 | 0.00 | 0.00 | 0.00 | 95 | 1014.7 |
| 20260505024404 | 44 | 223 | 0.0 | 1.0 | 0.00 | 0.00 | 0.00 | 96 | 1014.8 |
| 20260505023904 | 44 | 223 | 0.0 | 0.0 | 0.00 | 0.00 | 0.00 | 95 | 1014.8 |
| 20260505023404 | 43 | 223 | 0.0 | 0.0 | 0.00 | 0.00 | 0.00 | 95 | 1014.7 |
| 20260505022405 | 43 | 223 | 0.0 | 0.0 | 0.00 | 0.00 | 0.00 | 96 | 1014.8 |
| 20260505021904 | 43 | 223 | 0.0 | 0.0 | 0.00 | 0.00 | 0.00 | 95 | 1014.8 |
| 20260505021404 | 43 | 223 | 0.0 | 0.0 | 0.00 | 0.00 | 0.00 | 95 | 1014.7 |
| 20260505020405 | 43 | 223 | 0.0 | 2.0 | 0.00 | 0.00 | 0.00 | 95 | 1014.8 |
| 20260505015903 | 43 | 223 | 0.0 | 0.0 | 0.00 | 0.00 | 0.00 | 95 | 1014.8 |
| 20260505014405 | 44 | 223 | 0.0 | 0.0 | 0.00 | 0.00 | 0.00 | 95 | 1014.8 |
| 20260505012904 | 45 | 223 | 0.0 | 0.0 | 0.00 | 0.00 | 0.00 | 95 | 1014.8 |
| 20260505012404 | 45 | 223 | 0.0 | 0.0 | 0.00 | 0.00 | 0.00 | 95 | 1014.8 |
| 20260505010405 | 45 | 223 | 0.0 | 0.0 | 0.00 | 0.00 | 0.00 | 95 | 1014.7 |
| 20260505005904 | 45 | 223 | 0.0 | 0.0 | 0.00 | 0.00 | 0.00 | 95 | 1014.8 |
| 20260505005404 | 45 | 223 | 0.0 | 0.0 | 0.00 | 0.00 | 0.00 | 95 | 1014.7 |
| 20260505004404 | 45 | 223 | 0.0 | 0.0 | 0.00 | 0.00 | 0.00 | 94 | 1014.7 |
| 20260505003404 | 46 | 223 | 0.0 | 0.0 | 0.00 | 0.00 | 0.00 | 95 | 1014.7 |
| 20260505002405 | 46 | 223 | 0.0 | 0.0 | 0.00 | 0.00 | 0.00 | 94 | 1014.7 |
| 20260505001905 | 46 | 223 | 0.0 | 0.0 | 0.00 | 0.00 | 0.00 | 94 | 1014.8 |